DW8199 Weather Reports


time (UTC)temp
C
wind
direction
speed
KPH
gust
KPH
rain 1hr
cm
rain 24hr
cm
rain mn
cm
humidity
%
barometer
mb
20260504030515 12 268 0.0 6.4 0.00 0.00 0.00 56 1014.3
20260504025515 12 226 1.6 6.4 0.00 0.00 0.00 56 1014.3
20260504024515 12 233 1.6 6.4 0.00 0.00 0.00 55 1014.4
20260504023536 12 216 1.6 4.8 0.00 0.00 0.00 55 1014.4
20260504022515 12 248 1.6 9.7 0.00 0.00 0.00 55 1014.5
20260504021516 12 228 3.2 11.3 0.00 0.00 0.00 54 1014.5
20260504020515 11 252 3.2 14.5 0.00 0.00 0.00 56 1014.4
20260504015515 11 224 0.0 4.8 0.00 0.00 0.00 57 1014.3
20260504014515 10 259 1.6 9.7 0.00 0.00 0.00 58 1014.0
20260504013515 11 80 0.0 1.6 0.00 0.00 0.00 58 1013.7
20260504012515 11 0.0 1.6 0.00 0.00 0.00 54 1013.6
20260504011515 11 80 1.6 1.6 0.00 0.00 0.00 54 1013.7
20260504010535 11 80 1.6 3.2 0.00 0.00 0.00 52 1013.7
20260504005516 11 55 0.0 1.6 0.00 0.00 0.00 52 1013.7
20260504004515 12 100 0.0 1.6 0.00 0.00 0.00 52 1013.7
20260504003515 12 106 0.0 1.6 0.00 0.00 0.00 52 1013.6
20260504002515 13 109 0.0 1.6 0.00 0.00 0.00 49 1013.5
20260504001514 13 0.0 3.2 0.00 0.00 0.00 49 1013.5
20260504000515 13 261 0.0 3.2 0.00 0.00 0.00 46 1013.5
20260503235515 13 328 0.0 4.8 0.00 0.00 0.00 45 1013.6
20260503234515 13 252 1.6 9.7 0.00 0.00 0.00 44 1013.7
20260503233515 14 211 1.6 8.0 0.00 0.00 0.00 44 1013.8
20260503232515 14 237 1.6 6.4 0.00 0.00 0.00 44 1013.9
20260503231517 14 217 3.2 11.3 0.00 0.00 0.00 44 1013.9
20260503230517 14 243 4.8 14.5 0.00 0.00 0.00 42 1014.0
20260503225517 15 238 3.2 9.7 0.00 0.00 0.00 44 1014.0
20260503224517 15 234 1.6 14.5 0.00 0.00 0.00 42 1014.1
20260503223516 15 263 4.8 16.1 0.00 0.00 0.00 42 1014.2
20260503222535 15 237 4.8 16.1 0.00 0.00 0.00 42 1014.2
20260503221537 15 236 4.8 16.1 0.00 0.00 0.00 42 1014.3
20260503220517 15 240 6.4 20.9 0.00 0.00 0.00 41 1014.4
20260503215517 15 244 4.8 12.9 0.00 0.00 0.00 42 1014.4
20260503214537 15 243 3.2 12.9 0.00 0.00 0.00 42 1014.4
20260503213537 15 244 4.8 14.5 0.00 0.00 0.00 41 1014.4
20260503212517 15 213 4.8 14.5 0.00 0.00 0.00 41 1014.4
20260503211517 16 298 6.4 19.3 0.00 0.00 0.00 41 1014.4
20260503210517 16 282 4.8 16.1 0.00 0.00 0.00 42 1014.5
20260503205517 16 218 4.8 19.3 0.00 0.00 0.00 41 1014.5
20260503204537 16 265 4.8 14.5 0.00 0.00 0.00 41 1014.5
20260503203517 15 210 6.4 24.1 0.00 0.00 0.00 40 1014.6
20260503202517 16 248 6.4 16.1 0.00 0.00 0.00 39 1014.7
20260503201517 16 266 4.8 14.5 0.00 0.00 0.00 40 1014.9
20260503200538 16 263 6.4 14.5 0.00 0.00 0.00 42 1015.1
20260503195517 16 244 4.8 14.5 0.00 0.00 0.00 40 1015.3
20260503194517 16 255 6.4 17.7 0.00 0.00 0.00 40 1015.5
20260503193517 15 177 6.4 22.5 0.00 0.00 0.00 41 1015.7
20260503192517 15 236 6.4 20.9 0.00 0.00 0.00 40 1015.9
20260503191517 16 310 6.4 24.1 0.00 0.00 0.00 37 1016.0
20260503190517 15 222 6.4 19.3 0.00 0.00 0.00 39 1016.1
20260503185518 15 255 4.8 11.3 0.00 0.00 0.00 38 1016.4
20260503184517 15 273 3.2 17.7 0.00 0.00 0.00 37 1016.4
20260503183517 15 262 6.4 24.1 0.00 0.00 0.00 38 1016.5
20260503182518 15 268 4.8 19.3 0.00 0.00 0.00 40 1016.6
20260503181517 15 230 6.4 22.5 0.00 0.00 0.00 40 1016.7
20260503180517 15 277 6.4 12.9 0.00 0.00 0.00 39 1016.9
20260503175514 15 268 4.8 19.3 0.00 0.00 0.00 40 1017.0
20260503174517 15 251 4.8 14.5 0.00 0.00 0.00 41 1017.0
20260503173516 15 287 6.4 19.3 0.00 0.00 0.00 42 1017.2
20260503172517 13 250 4.8 12.9 0.00 0.00 0.00 47 1017.1
20260503171517 14 293 6.4 16.1 0.00 0.00 0.00 43 1017.4
20260503170516 15 227 6.4 17.7 0.00 0.00 0.00 46 1017.5
20260503150516 11 251 4.8 14.5 0.00 0.00 0.00 49 1018.7
20260503130516 6 166 1.6 6.4 0.00 0.00 0.00 77 1018.9
20260503110516 0 0.0 0.0 0.00 0.00 0.00 90 1017.7
20260503081516 1 0.0 0.0 0.00 0.00 0.00 88 1017.3
20260503080516 1 0.0 0.0 0.00 0.00 0.00 88 1017.4
20260503072516 2 0.0 0.0 0.00 0.00 0.00 88 1017.3
20260503071516 2 0.0 0.0 0.00 0.00 0.00 88 1017.3
20260503070516 2 0.0 0.0 0.00 0.00 0.00 87 1017.2
20260503054516 3 0.0 0.0 0.00 0.00 0.00 86 1017.4
20260503053516 3 0.0 0.0 0.00 0.00 0.00 87 1017.4
20260503052516 3 0.0 0.0 0.00 0.00 0.00 86 1017.4
20260503051536 3 0.0 0.0 0.00 0.00 0.00 86 1017.4
20260503050517 3 0.0 0.0 0.00 0.00 0.00 86 1017.4
20260503045516 3 0.0 0.0 0.00 0.00 0.00 86 1017.5
20260503044516 3 0.0 0.0 0.00 0.00 0.00 86 1017.6
20260503043516 3 0.0 0.0 0.00 0.00 0.00 85 1017.7
20260503042516 3 0.0 0.0 0.00 0.00 0.00 85 1017.7
20260503041516 3 0.0 0.0 0.00 0.00 0.00 85 1017.7
20260503040516 3 0.0 0.0 0.00 0.00 0.00 85 1017.7
20260503035556 3 0.0 0.0 0.00 0.00 0.00 85 1017.8
20260503034516 3 0.0 0.0 0.00 0.00 0.00 85 1017.9
20260503033515 3 0.0 0.0 0.00 0.00 0.00 84 1017.9
20260503032515 3 0.0 0.0 0.00 0.00 0.00 84 1018.0
20260503031515 3 0.0 0.0 0.00 0.00 0.00 83 1017.9